Wind_Speed
11 11 10 11 12 12 12 12 13 13 13 14 14 14 13 13 13 13 13 13 14 15 15 16 16 17 18 18 19 19 20 20 21 21 22 22 23 23
11 11 11 11 11 12 12 12 13 13 14 14 14 14 14 14 13 13 14 13 14 16 16 17 17 18 19 19 20 20 20 21 22 23 24 24 24 24
10 10 10 11 12 12 12 12 13 13 14 14 14 14 14 13 13 14 15 15 16 17 18 18 19 20 20 20 21 21 21 22 23 24 25 25 25 26
10 10 11 11 12 12 12 12 13 13 13 13 13 13 13 13 14 15 16 17 18 19 19 20 21 21 21 21 21 22 23 24 25 26 27 27 27 27
10 10 11 11 11 12 12 12 12 13 13 13 14 14 14 15 15 16 17 18 19 19 20 21 22 22 22 22 23 24 25 26 27 28 28 28 29 30
11 11 11 11 12 13 13 13 13 13 14 14 14 15 16 16 16 17 18 19 20 21 21 22 23 23 23 23 24 24 25 27 28 29 30 31 31 32
12 12 12 12 13 14 14 14 14 14 15 15 15 16 16 17 18 19 20 20 21 23 23 24 24 24 24 25 25 26 27 28 29 30 30 31 32 33
13 13 13 13 14 14 15 14 15 15 16 16 17 17 17 18 19 20 21 22 23 25 26 26 26 26 26 27 28 28 29 29 29 30 31 32 33 34
13 14 14 14 15 15 15 16 16 17 17 18 18 19 20 21 22 23 24 25 26 27 27 28 28 28 28 28 29 29 30 31 32 33 33 35 35 36
14 15 16 16 16 16 17 17 19 19 19 20 21 22 22 23 24 25 26 27 28 28 29 29 29 30 30 31 31 32 33 34 35 35 36 37 37 37
16 16 17 17 17 18 19 19 20 20 21 21 22 23 24 25 26 27 28 29 29 29 29 30 30 31 32 33 34 35 35 36 36 36 37 37 37 38
17 17 17 17 18 19 19 20 21 21 22 22 24 25 26 27 28 29 29 30 30 30 31 32 32 33 33 34 35 35 36 36 37 38 38 38 39 39
18 18 18 19 19 19 20 21 22 23 23 24 25 26 26 28 29 30 30 30 31 31 32 33 33 34 35 35 35 35 36 37 38 39 39 40 40 40
20 20 20 20 20 21 22 22 23 24 24 25 25 26 27 28 30 30 31 31 32 33 33 34 34 35 35 35 36 36 37 38 39 40 40 40 41 42
21 21 21 21 22 22 23 24 25 25 24 25 26 27 29 30 30 31 32 33 34 34 35 36 36 37 37 38 38 39 39 40 40 41 41 42 42 43
21 21 21 22 23 23 24 25 25 25 26 26 27 28 29 30 31 32 33 34 35 36 37 38 39 39 39 40 41 41 41 41 41 42 42 43 43 43
22 23 23 24 24 24 25 26 26 27 27 28 29 30 31 32 32 33 34 35 35 36 38 39 39 40 41 42 42 42 42 42 43 43 43 43 44 45
23 23 24 24 25 26 26 27 28 28 29 30 31 31 32 33 34 35 36 36 37 38 39 40 40 40 42 43 44 44 43 44 44 45 45 45 44 45
24 24 25 26 26 27 28 28 29 30 30 31 32 33 34 34 35 36 37 38 38 40 41 41 41 42 43 44 44 45 45 45 45 46 46 46 45 45
25 26 27 27 27 28 29 30 30 31 32 33 34 35 35 36 36 37 38 39 40 41 42 42 42 44 45 45 45 45 46 46 45 46 46 45 44 44
27 27 27 28 28 29 30 31 32 33 34 35 35 36 36 37 38 38 39 40 41 42 42 42 44 45 46 45 46 45 46 46 46 46 45 45 44 43
28 28 28 28 29 30 31 32 33 34 35 35 36 36 36 37 38 39 40 41 42 43 43 44 45 45 45 46 46 45 45 45 45 45 45 45 44 43
29 28 28 29 30 32 33 34 34 35 36 36 36 37 37 38 39 40 41 42 43 44 44 45 45 45 45 45 45 45 45 44 44 43 43 43 44 44
Wind_Direction
295 296 300 304 308 311 312 314 316 317 318 318 317 316 312 311 312 312 310 307 306 305 301 299 298 298 294 292 289 286 283 281 281 282 282 282 283 283
293 294 297 304 307 311 312 313 314 315 317 319 319 318 315 312 310 311 312 311 310 307 303 301 301 302 298 294 291 287 284 283 283 283 284 285 286 285
293 297 301 305 307 310 308 311 313 316 318 319 320 320 318 314 310 310 308 308 309 308 306 304 303 301 298 294 291 288 285 284 284 285 285 286 286 286
293 296 301 306 309 310 308 308 312 315 317 319 321 322 319 315 312 310 309 309 310 309 307 307 306 302 298 294 291 289 287 286 286 286 285 286 286 286
295 295 298 304 307 309 309 309 312 313 314 316 318 320 318 315 314 314 313 312 311 309 307 306 306 304 300 296 294 292 290 289 287 285 285 285 286 286
293 296 296 298 303 306 306 306 308 310 311 313 316 317 317 316 315 314 313 312 311 309 307 307 306 305 303 300 298 295 292 290 289 287 287 286 286 287
288 294 295 299 301 303 304 303 305 308 308 309 312 313 314 314 313 312 310 310 309 308 307 307 308 307 304 303 301 298 296 295 293 292 290 289 288 287
287 292 292 296 300 303 304 304 306 306 308 309 309 310 311 311 311 311 310 312 310 309 310 310 309 306 304 302 301 301 299 298 296 295 294 293 291 289
285 290 290 291 297 299 302 303 302 304 306 308 309 309 309 311 312 313 313 314 312 310 309 310 309 307 304 302 301 301 301 299 298 297 296 294 293 292
287 290 289 290 294 296 299 302 301 302 302 304 305 307 308 309 310 310 311 311 311 310 309 308 308 307 305 303 301 300 300 299 299 298 297 296 295 294
286 290 289 290 292 294 297 302 303 301 301 301 303 305 306 307 308 308 309 309 309 309 308 307 306 305 304 303 302 300 300 300 299 299 298 297 296 295
285 289 289 290 292 294 298 301 303 302 301 302 303 304 305 306 307 307 308 309 309 308 307 307 306 305 304 303 302 301 300 300 300 299 299 298 296 295
283 286 287 290 294 296 300 302 304 303 302 303 304 305 306 306 307 307 308 308 309 310 309 308 308 307 306 306 305 303 302 301 301 300 299 298 297 295
282 285 287 290 294 297 300 302 304 303 303 305 306 307 308 309 309 308 308 309 309 309 309 309 310 310 308 308 307 305 304 303 301 300 300 298 297 296
285 287 288 291 294 295 299 301 303 304 304 304 306 308 309 310 311 310 308 309 310 311 311 310 310 310 309 308 307 305 304 304 303 302 300 299 298 297
285 288 289 292 294 295 297 300 302 304 304 304 306 307 308 309 310 311 311 311 311 311 311 311 311 310 309 309 308 307 306 305 304 303 302 301 300 299
284 289 290 291 293 294 297 298 300 302 303 304 305 306 307 308 309 311 312 312 312 312 311 311 310 310 310 310 308 307 306 305 305 305 303 302 302 300
286 290 291 292 293 295 297 298 300 302 303 303 305 306 307 308 310 311 312 312 312 312 312 311 310 310 310 310 309 307 306 305 305 305 304 303 301 301
287 290 292 294 295 296 297 299 300 302 303 304 305 305 306 307 309 310 311 312 312 312 312 311 311 311 310 310 309 308 307 306 305 305 304 303 302 302
289 291 293 294 294 296 298 300 301 302 303 303 304 305 305 307 308 310 311 311 312 313 312 312 311 312 312 311 311 310 308 308 307 306 305 304 303 302
290 292 293 294 295 297 299 300 302 302 303 303 303 304 305 307 308 309 310 312 313 313 313 313 313 313 313 312 312 311 311 310 309 308 307 305 304 303
288 290 292 294 295 297 299 301 303 304 303 303 304 305 306 307 309 310 311 312 313 313 313 313 313 313 314 313 313 312 312 311 310 310 309 309 308 307
287 289 291 294 295 297 299 301 303 304 304 304 304 305 307 308 309 310 312 313 313 313 312 312 313 313 314 314 313 313 313 313 312 312 312 311 310 308
Height
5859 5858 5857 5856 5856 5855 5853 5852 5851 5850 5848 5846 5844 5842 5840 5838 5838 5837 5836 5835 5834 5833 5832 5831 5830 5829 5827 5826 5825 5825 5825 5824 5824 5823 5823 5822 5821 5820
5856 5856 5855 5854 5853 5852 5851 5850 5848 5847 5845 5843 5840 5838 5836 5835 5834 5834 5833 5832 5831 5830 5828 5827 5825 5823 5821 5820 5819 5819 5818 5818 5818 5817 5816 5815 5814 5813
5854 5853 5852 5852 5851 5850 5849 5847 5846 5844 5842 5840 5837 5835 5833 5832 5831 5831 5830 5829 5827 5826 5824 5822 5820 5818 5816 5814 5813 5812 5812 5811 5811 5810 5809 5808 5807 5806
5851 5850 5850 5849 5848 5847 5846 5845 5843 5841 5840 5838 5835 5833 5831 5830 5829 5828 5826 5825 5824 5822 5820 5818 5815 5813 5811 5809 5807 5806 5805 5805 5804 5803 5802 5801 5800 5798
5848 5847 5847 5846 5845 5844 5843 5842 5840 5839 5837 5835 5833 5831 5829 5828 5826 5825 5823 5821 5820 5818 5815 5813 5811 5808 5806 5803 5802 5800 5799 5798 5797 5795 5794 5792 5791 5789
5845 5844 5844 5843 5842 5841 5840 5839 5837 5836 5834 5833 5831 5829 5827 5825 5823 5822 5820 5817 5815 5813 5811 5808 5806 5803 5801 5798 5796 5794 5792 5790 5788 5787 5785 5783 5782 5780
5842 5841 5841 5840 5839 5838 5836 5835 5834 5833 5831 5830 5828 5826 5824 5822 5820 5818 5816 5813 5811 5808 5806 5803 5800 5798 5795 5792 5789 5787 5785 5782 5780 5778 5776 5774 5772 5770
5839 5838 5837 5837 5835 5834 5833 5831 5830 5829 5828 5826 5824 5822 5820 5818 5816 5813 5811 5809 5806 5803 5800 5797 5794 5791 5788 5785 5782 5779 5777 5774 5772 5769 5767 5764 5762 5760
5835 5835 5834 5833 5832 5831 5829 5828 5826 5825 5824 5822 5820 5818 5816 5813 5811 5808 5805 5803 5800 5797 5794 5790 5787 5784 5781 5777 5774 5772 5769 5765 5763 5760 5757 5754 5751 5749
5831 5831 5830 5829 5828 5827 5826 5824 5822 5820 5819 5817 5815 5813 5810 5808 5805 5802 5799 5797 5794 5790 5787 5783 5780 5776 5773 5769 5766 5763 5760 5756 5753 5749 5746 5743 5740 5737
5827 5826 5826 5825 5824 5822 5821 5820 5817 5815 5813 5811 5809 5807 5804 5801 5799 5796 5793 5790 5786 5783 5779 5776 5772 5769 5765 5761 5757 5753 5750 5746 5742 5739 5735 5732 5728 5725
5822 5822 5821 5820 5819 5817 5816 5814 5812 5810 5808 5805 5803 5801 5798 5795 5792 5789 5786 5782 5778 5775 5771 5768 5764 5760 5757 5753 5748 5743 5739 5735 5732 5728 5724 5720 5717 5714
5818 5817 5816 5815 5814 5812 5810 5808 5806 5804 5801 5799 5797 5794 5791 5788 5785 5781 5778 5774 5770 5767 5763 5759 5755 5750 5746 5743 5738 5733 5729 5725 5721 5716 5712 5708 5704 5701
5812 5812 5811 5809 5808 5806 5805 5802 5800 5798 5795 5793 5790 5787 5784 5781 5777 5773 5769 5766 5762 5758 5754 5749 5745 5741 5736 5732 5728 5723 5718 5713 5709 5705 5700 5696 5692 5688
5806 5806 5805 5804 5802 5801 5799 5796 5794 5792 5789 5786 5784 5781 5777 5774 5770 5766 5762 5758 5753 5749 5744 5739 5735 5730 5725 5721 5717 5712 5707 5702 5697 5693 5688 5684 5679 5674
5801 5800 5799 5798 5796 5795 5792 5790 5788 5785 5782 5780 5777 5773 5770 5766 5762 5758 5754 5749 5745 5740 5735 5730 5725 5720 5715 5710 5705 5700 5695 5690 5685 5680 5675 5670 5666 5661
5795 5794 5793 5792 5790 5788 5786 5784 5781 5778 5775 5772 5769 5765 5762 5758 5754 5750 5745 5741 5736 5731 5726 5721 5715 5710 5704 5699 5694 5689 5683 5678 5672 5667 5663 5658 5652 5647
5789 5788 5786 5785 5783 5781 5779 5777 5774 5771 5768 5764 5761 5757 5753 5749 5745 5741 5736 5731 5726 5721 5716 5711 5705 5700 5695 5688 5682 5677 5672 5666 5660 5654 5649 5644 5639 5633
5782 5781 5780 5778 5776 5774 5772 5769 5766 5763 5760 5756 5753 5749 5745 5741 5736 5732 5727 5722 5716 5711 5705 5699 5694 5688 5683 5678 5671 5663 5658 5653 5647 5641 5635 5630 5625 5619
5775 5774 5772 5770 5768 5766 5764 5761 5758 5755 5751 5747 5743 5739 5735 5731 5727 5722 5717 5712 5706 5701 5694 5688 5682 5677 5671 5665 5659 5652 5644 5639 5634 5628 5622 5616 5611 5605
5768 5766 5764 5762 5760 5758 5755 5752 5749 5746 5742 5738 5734 5730 5726 5721 5717 5712 5707 5701 5696 5690 5684 5678 5671 5665 5658 5652 5646 5640 5633 5625 5619 5613 5608 5603 5598 5592
5760 5758 5756 5754 5752 5750 5747 5744 5740 5737 5733 5729 5725 5720 5716 5711 5707 5702 5697 5691 5685 5679 5673 5667 5660 5654 5647 5640 5634 5628 5622 5615 5607 5600 5593 5587 5582 5577
5751 5750 5748 5746 5743 5741 5738 5734 5731 5727 5723 5719 5715 5711 5706 5701 5697 5692 5686 5681 5675 5668 5662 5656 5649 5642 5635 5629 5622 5616 5610 5603 5597 5590 5584 5576 5570 5565